Weather History for Fayetteville, AR

Change the Weather History Date:

Sunday, May 10, 2009

  Actual Average Record
Temperature  
Mean Temperature 57 °F 64 °F  
Max Temperature 64 °F 75 °F 87 °F (1973)
Min Temperature 51 °F 52 °F 36 °F (1997)
Degree Days  
Heating Degree Days 8    
Cooling Degree Days 0 2  
Month to date cooling degree days 15  
Year to date cooling degree days 43  
Growing Degree Days 7 (Base 50)    
Moisture  
Dew Point 54 °F    
Average Humidity 90    
Maximum Humidity 100    
Minimum Humidity 70    
Precipitation  
Precipitation 0.11 in 0.19 in 6.49 in (1950)
Month to date precipitation 1.94  
Year to date precipitation 16.11  
Sea Level Pressure  
Sea Level Pressure 30.12 in    
Wind  
Wind Speed 5 mph (ENE)    
Max Wind Speed 13 mph    
Max Gust Speed 24 mph    
Visibility 7 miles    
Events Rain    
T = Trace of Precipitation, MM = Missing Value Source: NWS Daily Summary

Daily Weather History Graph

Daily Weather History Graph

Search for Another Location

Airport:

Trip Planner

Search our weather history database for the weather conditions in past years. The results will help you decide how hot, cold, wet, or windy it might be!

Date:

Astronomy

May. 10, 2009 Rise Set
Actual Time 6:14 AM CDT 8:11 PM CDT
Civil Twilight 5:46 AM CDT 8:39 PM CDT
Nautical Twilight 5:12 AM CDT 9:14 PM CDT
Astronomical Twilight 4:35 AM CDT 9:51 PM CDT
Moon 10:08 PM CDT (5/10) 6:51 AM CDT (5/10)
Length of Visible Light 14h 53m
Length of Day
13h 56m
Full, 98% of the Moon is Illuminated
May 10
Full
May 17
Last Quarter
May 24
New
May 30
First Quarter
Jun 7
Full

Hourly Weather History & Observations

Time (CDT) Temp. Dew Point Humidity Pressure Visibility Wind Dir Wind Speed Gust Speed Precip Events Conditions
12:53 AM 59.0 °F 51.1 °F 75% 30.12 in 10.0 mi Calm Calm - N/A   Overcast
1:53 AM 59.0 °F 51.1 °F 75% 30.11 in 10.0 mi NE 4.6 mph - N/A   Overcast
2:53 AM 57.9 °F 52.0 °F 81% 30.09 in 10.0 mi Variable 4.6 mph - N/A   Overcast
3:53 AM 57.0 °F 51.1 °F 81% 30.09 in 10.0 mi NE 4.6 mph - 0.00 in   Scattered Clouds
4:53 AM 57.0 °F 50.0 °F 77% 30.11 in 10.0 mi ENE 3.5 mph - N/A   Partly Cloudy
5:53 AM 55.0 °F 52.0 °F 89% 30.11 in 10.0 mi Calm Calm - 0.00 in Rain Light Rain
6:53 AM 54.0 °F 52.0 °F 93% 30.13 in 10.0 mi Calm Calm - 0.00 in   Partly Cloudy
7:53 AM 55.4 °F 51.8 °F 88% 30.14 in 10.0 mi Calm Calm - N/A   Clear
8:53 AM 60.1 °F 51.1 °F 72% 30.13 in 10.0 mi East 4.6 mph - N/A   Mostly Cloudy
9:53 AM 60.1 °F 51.1 °F 72% 30.16 in 10.0 mi East 8.1 mph - N/A   Overcast
10:53 AM 57.9 °F 54.0 °F 87% 30.21 in 2.5 mi North 4.6 mph - 0.07 in Rain Heavy Rain
11:01 AM 57.2 °F 55.4 °F 94% 30.23 in 8.0 mi North 3.5 mph - 0.00 in Rain Light Rain
11:53 AM 61.0 °F 55.0 °F 81% 30.19 in 10.0 mi ENE 6.9 mph - 0.00 in   Mostly Cloudy
12:53 PM 63.0 °F 54.0 °F 72% 30.11 in 10.0 mi East 11.5 mph - N/A   Partly Cloudy
1:53 PM 63.0 °F 54.0 °F 72% 30.10 in 10.0 mi East 9.2 mph - N/A   Mostly Cloudy
2:53 PM 63.0 °F 53.1 °F 70% 30.09 in 10.0 mi East 10.4 mph - N/A   Overcast
3:53 PM 62.1 °F 53.1 °F 72% 30.08 in 10.0 mi SE 8.1 mph - N/A   Overcast
4:53 PM 59.0 °F 54.0 °F 83% 30.08 in 9.0 mi SE 6.9 mph - N/A   Overcast
5:21 PM 57.2 °F 55.4 °F 94% 30.09 in 4.0 mi Calm Calm - 0.01 in Rain Light Rain
5:38 PM 57.2 °F 57.2 °F 100% 30.09 in 2.5 mi ENE 4.6 mph - 0.01 in Rain Light Rain
5:53 PM 57.0 °F 57.0 °F 100% 30.08 in 2.5 mi NE 3.5 mph - 0.01 in   Overcast
6:00 PM 57.2 °F 57.2 °F 100% 30.09 in 3.0 mi Variable 3.5 mph - N/A   Overcast
6:27 PM 57.2 °F 57.2 °F 100% 30.09 in 4.0 mi NNE 4.6 mph - 0.01 in   Overcast
6:37 PM 55.4 °F 55.4 °F 100% 30.09 in 4.0 mi Variable 6.9 mph - 0.01 in Rain Light Rain
6:48 PM 55.4 °F 55.4 °F 100% 30.09 in 2.5 mi NE 6.9 mph - 0.01 in Rain Light Rain
6:53 PM 55.9 °F 55.9 °F 100% 30.09 in 3.0 mi NE 6.9 mph - 0.01 in Rain Light Rain
7:00 PM 55.4 °F 55.4 °F 100% 30.10 in 2.5 mi Variable 4.6 mph - 0.01 in Rain Light Rain
7:21 PM 55.4 °F 55.4 °F 100% 30.10 in 4.0 mi NE 5.8 mph - 0.01 in   Overcast
7:53 PM 55.0 °F 55.0 °F 100% 30.10 in 2.5 mi NE 5.8 mph - 0.02 in Rain Light Rain
8:02 PM 55.4 °F 55.4 °F 100% 30.11 in 4.0 mi NE 9.2 mph - 0.00 in Rain Light Rain
8:13 PM 55.4 °F 55.4 °F 100% 30.12 in 6.0 mi Variable 5.8 mph - 0.00 in   Overcast
8:45 PM 55.4 °F 53.6 °F 94% 30.14 in 8.0 mi NE 5.8 mph - 0.00 in   Overcast
8:53 PM 55.0 °F 55.0 °F 100% 30.12 in 8.0 mi NE 4.6 mph - 0.00 in   Overcast
9:13 PM 53.6 °F 53.6 °F 100% 30.14 in 6.0 mi ENE 9.2 mph - N/A   Overcast
9:28 PM 53.6 °F 53.6 °F 100% 30.14 in 9.0 mi ENE 6.9 mph - N/A   Overcast
9:53 PM 55.0 °F 54.0 °F 96% 30.13 in 10.0 mi East 6.9 mph - N/A   Overcast
10:35 PM 55.4 °F 53.6 °F 94% 30.16 in 10.0 mi Variable 6.9 mph - N/A   Overcast
10:46 PM 53.6 °F 51.8 °F 94% 30.17 in 9.0 mi NE 12.7 mph 24.2 mph N/A   Overcast
10:53 PM 53.1 °F 51.1 °F 93% 30.16 in 6.0 mi NNE 6.9 mph 24.2 mph N/A   Overcast
11:11 PM 51.8 °F 51.8 °F 100% 30.17 in 9.0 mi NE 6.9 mph 16.1 mph N/A   Overcast
11:53 PM 53.1 °F 50.0 °F 89% 30.16 in 10.0 mi ENE 9.2 mph - N/A   Overcast